Regional Weather Roundup
Issued by NWS

Home | Current Version | Previous Version | Text Only | Print | Product List | Glossary On
Versions: 1 2 3 4 5 6 7 8 9 10 11 12 13 14 15 16 17 18 19 20 21 22 23 24 25 26 27 28 29 30 31 32 33 34 35 36 37 38 39 40 41 42 43 44 45 46 47 48 49 50
000
ASUS45 KSLC 221910
RWRUT

UTAH REGIONAL WEATHER ROUNDUP
NATIONAL WEATHER SERVICE SALT LAKE CITY UT
100 PM MDT FRI AUG 22 2014

UTZ001>011-023>025-222000-

NORTHERN UTAH

CITY           SKY/WX    TMP DP  RH WIND       PRES   REMARKS
HILL AFB       CLOUDY    75  52  43 VRB6      30.02F
LOGAN          PTSUNNY   67  53  61 N16       30.05F
OGDEN          CLOUDY    74  50  42 NW5       30.00F
PROVO AIRPORT  NOT AVBL
SALT LAKE CITY CLOUDY    79  45  29 S13G18    29.96F
VERNAL         MOSUNNY   72  47  40 VRB3      30.07F
WENDOVER       CLOUDY    72  48  43 NE15G21   29.99F
HEBER CITY     MOSUNNY   79  45  29 W10       30.03F
WEST JORDAN    SUNNY     79  54  41 SE12      29.99F

$$

UTZ012>022-026-027-222000-

SOUTHERN UTAH

CITY           SKY/WX    TMP DP  RH WIND       PRES   REMARKS
BRYCE CANYON   PTSUNNY   63  48  58 SE12      30.24F
CEDAR CITY     SUNNY     75  46  35 SW12      30.11F
MILFORD        SUNNY     79  46  31 S21G29    30.06F
MOAB/CYNLANDS  CLOUDY    76  48  37 SW5       30.04F
PRICE          CLOUDY    71  43  36 VRB5      30.13F
ST GEORGE      PTCLDY    81  50  34 W7        30.01F
KANAB            N/A     73  52  46 S10       30.15F

$$

REGIONAL REPORTS     COLORADO/ARIZONA

CITY           SKY/WX    TMP DP  RH WIND       PRES   REMARKS
CRAIG, CO      CLOUDY    74  46  36 NE6       30.12F
GRAND JUNCTION CLOUDY    76  47  35 VRB7      30.06F
RIFLE          CLOUDY    72  49  44 E8        30.12F
MONTROSE       CLOUDY    70  56  61 E6        30.16F
CORTEZ         CLOUDY    72  52  49 SE8       30.17F
PAGE, AZ       MOSUNNY   76  54  46 VRB7      30.07F
GRAND CANYON   MOSUNNY   66  48  52 SW12      30.25F
KINGMAN        SUNNY     78  55  44 SW8       30.08S
FLAGSTAFF      CLOUDY    63  48  58 SW13      30.27F

$$

REGIONAL REPORTS    NEVADA/IDAHO/WYOMING

CITY           SKY/WX    TMP DP  RH WIND       PRES   REMARKS
LAS VEGAS, NV  MOSUNNY   86  52  30 CALM      29.92F
ELY            MOSUNNY   77  41  27 SW14G23   30.08F
ELKO           PTSUNNY   77  37  23 SW13G22   29.98F
POCATELLO, ID  PTSUNNY   61  52  72 SE5       30.04F
BURLEY         CLOUDY    67  55  65 SE3       29.96F
EVANSTON, WY   PTSUNNY   64  46  52 VRB3      30.14F
ROCK SPRINGS   MOSUNNY   72  42  34 VRB5      30.11F

$$


USA.gov is the U.S. government's official web portal to all federal, state and local government web resources and services.